Location: Pallagorio
(39.3000°N, 16.9000°E)
Time: 01:40:05
(UTC+00:00)

Meteor 1-11 - Pass Details

Date: 24 January 2021
Orbit: 840 x 887 km, 81.2° (Epoch: 08 March)

Event Time Altitude Azimuth Distance (km) Brightness Sun altitude
Rises 17:30:52 0° 178° (S) 3,450 7.5 -16.9°
Reaches altitude 10° 17:33:19 10° 175° (S) 2,510 6.7 -17.3°
Maximum altitude 17:38:57 64° 95° (E) 954 4.2 -18.4°
Drops below altitude 10° 17:44:32 10° 16° (NNE) 2,495 6.4 -19.5°
Sets 17:46:58 0° 13° (NNE) 3,428 7.2 -19.9°
